Regional Weather Roundup
Issued by NWS Cleveland, OH

Home | Current Version | Previous Version | Graphics & Text | Print | Product List | Glossary On
Versions: 1 2 3 4 5 6 7 8 9 10 11 12 13 14 15 16 17 18 19 20 21 22 23 24 25 26 27 28 29 30 31 32 33 34 35 36 37 38 39 40 41 42 43 44 45 46 47 48 49 50
000
ASUS41 KCLE 301602
RWRCLE
OHIO REGIONAL WEATHER ROUNDUP
NATIONAL WEATHER SERVICE CLEVELAND, OH
1100 AM EST FRI JAN 30 2015

NOTE: "FAIR" INDICATES FEW OR NO CLOUDS BELOW 12,000 FEET WITH NO
SIGNIFICANT WEATHER AND/OR OBSTRUCTIONS TO VISIBILITY.

OHZ001>008-015>018-024>027-034-035-043-044-301700-
   NORTHWEST OHIO

CITY           SKY/WX    TMP DP  RH WIND       PRES   REMARKS
DEFIANCE       MOSUNNY   24   9  52 N13       30.46R WCI  12
FINDLAY        SUNNY     22   9  57 N16       30.42R WCI   8
TOLEDO EXPRESS MOSUNNY   20   8  60 N13G22    30.44R WCI   7
TOLEDO EXEC    FAIR      20   7  57 NW20      30.45R WCI   4
LIMA           LGT SNOW  23  13  65 N16       30.41R WCI  10
$$

OHZ009>014-019>023-028>033-038-089-301700-
   NORTHEAST OHIO

CITY           SKY/WX    TMP DP  RH WIND       PRES   REMARKS
CLE-HOPKINS    CLOUDY    17   8  67 NW20G28   30.40R WCI   1
CLE-LAKEFRONT  CLOUDY    17   9  70 NW23G31   30.37R WCI  -1
CUY CO. ARPT   PTSUNNY   18  12  79 NW12G23   30.35R WCI   5
LORAIN-ELYRIA  MOSUNNY   17   8  67 N17       30.39R WCI   1
ASHTABULA      LGT SNOW  17  13  84 NW9G20    30.28R VSB 3/4 WCI   6
AKRON-CANTON   LGT SNOW  18  10  71 N17       30.30R WCI   3
WOOSTER        CLOUDY    17   8  67 NW21      30.34R WCI   0
MANSFIELD      LGT SNOW  17   9  70 NW22      30.34R WCI   0
YOUNGSTOWN     SNOW      16  11  80 NW24G31   30.25R VSB 1/2 WCI  -2
$$

OHZ042-051>053-060>062-070>072-077>081-301700-
  SOUTHWEST OHIO

CITY           SKY/WX    TMP DP  RH WIND       PRES   REMARKS
CINC-COVINGTON PTSUNNY   29  14  53 N20       30.44R WCI  16
CINC-LUNKEN    FLURRIES  27  15  61 N14       30.49R WCI  16
HAMILTON       FLURRIES  26  14  60 N14       30.48R WCI  14
DAYTON         CLOUDY    24  13  62 N20G26    30.45R WCI  10
WRIGHT-PAT AFB PTSUNNY   23  12  63 NW12      30.44R WCI  12
DAYTON GENERAL FAIR      25  11  55 N15G22    30.43R WCI  13
WILMINGTON     PTSUNNY   23  12  62 N20G26    30.41R WCI   8
$$

OHZ036-037-039>041-045>050-054>059-063>069-073>076-082>088-301700-
  CENTRAL AND SOUTHEAST OHIO

CITY           SKY/WX    TMP DP  RH WIND       PRES   REMARKS
COLUMBUS       PTSUNNY   22   9  57 NW20G30   30.39R WCI   7
OSU AIRPORT    PTSUNNY   21   9  59 NW25G33   30.38R WCI   4
BOLTON FIELD   CLOUDY    21  12  68 NW18G25   30.40R WCI   6
RICKENBACK AFB NOT AVBL
NEWARK         CLOUDY    22  10  60 NW20G25   30.37R WCI   7
MARION         PTSUNNY   19   9  65 N18       30.40R WCI   4
LANCASTER      CLOUDY    24  16  71 NW12      30.39R WCI  13
ZANESVILLE     PTSUNNY   22  11  62 NW14G24   30.34R WCI   9
NEW PHILLY     CLOUDY    20   9  62 N16G24    30.34R WCI   6
$$



USA.gov is the U.S. government's official web portal to all federal, state and local government web resources and services.